Waarnemingen

Advertentie
Mijn weer
Santander/Parayas, Spanje (8021): temperatuur & dauwpunt: 20.01.2020 07:00:00 - 26.01.2020 07:00:00 (CET)Santander/Parayas, Spanje (8021): windsnelheid: 20.01.2020 07:00:00 - 26.01.2020 07:00:00 (CET)Santander/Parayas, Spanje (8021): windrichting: 20.01.2020 07:00:00 - 26.01.2020 07:00:00 (CET)Santander/Parayas, Spanje (8021): luchtdruk: 20.01.2020 07:00:00 - 26.01.2020 07:00:00 (CET)Santander/Parayas, Spanje (8021): zicht: 20.01.2020 07:00:00 - 26.01.2020 07:00:00 (CET)
Datum & Tijd tt [°C] td [°C] ff [km/u] ff [kn] dd ppp [hPa] vv [km]
26.01.2020 07:00:00 3,3 2,1 0 0 N 1020,1 18
26.01.2020 06:00:00 5,1 3,6 5 3 W 1019,6 -
26.01.2020 05:00:00 5,5 4,8 8 4 ZW 1019,3 -
26.01.2020 04:00:00 4,6 4,3 4 2 WZW 1019,4 -
26.01.2020 03:00:00 4,4 4,1 5 3 ZW 1019,0 -
26.01.2020 02:00:00 4,6 4,3 4 2 ZZW 1018,8 -
26.01.2020 01:00:00 5,6 5,2 0 0 N 1018,8 -
26.01.2020 00:00:00 6,2 5,6 5 3 ZW 1018,8 -
25.01.2020 23:00:00 7,4 6,7 0 0 N 1018,8 -
25.01.2020 22:00:00 8,0 6,9 2 1 ZW 1018,7 15
25.01.2020 21:00:00 8,4 7,2 0 0 N 1018,4 -
25.01.2020 20:00:00 9,3 7,6 0 0 N 1017,8 -
25.01.2020 19:00:00 10,3 7,9 0 0 N 1017,3 15
25.01.2020 18:00:00 11,6 8,6 4 2 WZW 1016,8 -
25.01.2020 17:00:00 12,4 8,9 4 2 WNW 1016,3 -
25.01.2020 16:00:00 12,9 8,6 8 4 N 1016,1 20
25.01.2020 15:00:00 13,6 8,5 9 5 ONO 1016,2 -
25.01.2020 14:00:00 14,1 8,1 2 1 NO 1016,6 -
25.01.2020 13:00:00 11,6 9,1 0 0 N 1017,4 20
25.01.2020 12:00:00 9,8 9,2 0 0 N 1018,2 -
25.01.2020 11:00:00 8,2 7,9 0 0 N 1018,2 -
25.01.2020 10:00:00 6,9 6,8 0 0 N 1018,1 20
25.01.2020 09:00:00 5,2 4,9 2 1 W 1017,8 -
25.01.2020 08:00:00 5,1 4,8 8 4 ZZW 1017,5 -
25.01.2020 07:00:00 5,7 5,4 4 2 WNW 1017,1 25
25.01.2020 06:00:00 6,3 6,0 0 0 N 1017,0 -
25.01.2020 05:00:00 6,7 6,4 0 0 N 1017,1 -
25.01.2020 04:00:00 7,0 6,9 4 2 OZO 1017,5 -
25.01.2020 03:00:00 4,8 4,7 0 0 N 1017,9 -
25.01.2020 02:00:00 4,2 4,1 4 2 OZO 1018,3 -
25.01.2020 01:00:00 4,8 4,5 0 0 N 1018,6 -
25.01.2020 00:00:00 6,2 5,6 0 0 N 1018,8 -
24.01.2020 23:00:00 8,4 7,8 0 0 N 1019,2 -
24.01.2020 22:00:00 9,0 8,2 4 2 ZZW 1019,3 15
24.01.2020 21:00:00 9,4 8,6 0 0 N 1019,4 -
24.01.2020 20:00:00 9,6 8,7 9 5 ZW 1018,9 -
24.01.2020 19:00:00 10,1 8,9 8 4 W 1018,5 15
24.01.2020 18:00:00 11,4 9,3 0 0 N 1018,0 -
24.01.2020 17:00:00 12,4 9,9 5 3 ONO 1018,1 -
24.01.2020 16:00:00 12,9 9,0 9 5 ONO 1018,4 -
24.01.2020 15:00:00 13,6 10,0 9 5 ONO 1018,6 -
24.01.2020 14:00:00 13,1 9,9 13 7 NO 1019,1 -
24.01.2020 13:00:00 12,8 9,1 9 5 NO 1019,7 20
24.01.2020 12:00:00 12,1 8,6 5 3 ONO 1020,2 -
24.01.2020 11:00:00 11,3 9,0 0 0 N 1019,9 -
24.01.2020 10:00:00 9,7 7,6 5 3 ZW 1019,6 15
24.01.2020 09:00:00 8,5 6,6 9 5 W 1019,2 -
24.01.2020 08:00:00 9,1 6,9 9 5 W 1018,8 -
24.01.2020 07:00:00 9,3 5,0 11 6 WNW 1018,4 20
24.01.2020 06:00:00 12,4 4,4 22 12 ZZW 1017,6 -
24.01.2020 05:00:00 11,8 4,7 18 10 ZZW 1017,6 -
24.01.2020 04:00:00 11,9 4,6 26 14 Z 1018,0 -
24.01.2020 03:00:00 11,3 5,0 22 12 ZZW 1018,2 -
24.01.2020 02:00:00 11,2 5,5 21 11 ZZW 1018,1 -
24.01.2020 01:00:00 8,5 7,7 13 7 Z 1018,4 -
24.01.2020 00:00:00 6,3 6,0 0 0 N 1018,7 -
23.01.2020 23:00:00 6,4 6,0 2 1 ZO 1018,8 -
23.01.2020 22:00:00 7,4 7,0 0 0 N 1018,5 1,2
23.01.2020 21:00:00 7,8 7,0 0 0 N 1018,5 -
23.01.2020 20:00:00 8,3 7,4 0 0 N 1018,5 -
23.01.2020 19:00:00 8,8 7,4 4 2 ZZO 1018,3 12
23.01.2020 18:00:00 10,0 7,9 0 0 N 1018,0 -
23.01.2020 17:00:00 10,8 8,6 8 4 WNW 1017,7 -
23.01.2020 16:00:00 11,7 8,7 5 3 W 1017,5 15
23.01.2020 15:00:00 11,7 7,8 0 0 N 1018,0 -
23.01.2020 14:00:00 11,2 9,1 4 2 OZO 1018,8 -
23.01.2020 13:00:00 9,7 8,5 8 4 O 1019,8 12
23.01.2020 12:00:00 8,7 8,2 5 3 NO 1019,6 -
23.01.2020 11:00:00 7,2 7,1 0 0 N 1019,5 -
23.01.2020 10:00:00 5,6 5,5 4 2 ZW 1019,8 10
23.01.2020 09:00:00 4,2 4,2 0 0 N 1019,8 -
23.01.2020 08:00:00 4,3 4,3 4 2 Z 1019,7 -
23.01.2020 07:00:00 5,1 5,1 8 4 ZW 1018,9 7
23.01.2020 06:00:00 3,8 3,7 8 4 OZO 1019,7 -
23.01.2020 05:00:00 4,6 4,3 0 0 N 1019,3 -
23.01.2020 04:00:00 6,1 6,0 5 3 ZW 1019,6 -
23.01.2020 03:00:00 6,1 6,0 4 2 W 1020,2 -
23.01.2020 02:00:00 6,2 6,1 2 1 WZW 1020,4 -
23.01.2020 01:00:00 5,7 5,6 0 0 N 1021,1 -
23.01.2020 00:00:00 5,4 5,3 5 3 ZZO 1021,3 -
22.01.2020 23:00:00 5,8 5,7 8 4 ZZW 1021,1 -
22.01.2020 22:00:00 4,4 4,2 5 3 WZW 1021,4 3,0
22.01.2020 21:00:00 4,5 4,1 0 0 N 1021,7 -
22.01.2020 20:00:00 6,1 5,4 2 1 ZZW 1021,7 -
22.01.2020 19:00:00 8,6 7,7 0 0 N 1021,7 8
22.01.2020 18:00:00 8,8 7,7 2 1 OZO 1021,7 -
22.01.2020 17:00:00 9,1 8,2 5 3 OZO 1022,0 -
22.01.2020 16:00:00 9,2 8,3 0 0 N 1022,4 9
22.01.2020 15:00:00 9,3 8,2 2 1 O 1023,0 -
22.01.2020 14:00:00 9,5 8,1 0 0 N 1023,9 -
22.01.2020 13:00:00 9,8 8,3 2 1 O 1024,7 12
22.01.2020 12:00:00 9,4 8,5 0 0 N 1025,1 -
22.01.2020 11:00:00 8,9 8,1 0 0 N 1025,2 -
22.01.2020 10:00:00 8,6 7,8 4 2 ZZW 1025,2 12
22.01.2020 09:00:00 8,3 7,5 0 0 N 1025,0 -
22.01.2020 08:00:00 8,3 7,5 4 2 ZO 1025,0 -
22.01.2020 07:00:00 8,3 7,4 4 2 W 1024,9 12
22.01.2020 06:00:00 8,3 7,5 4 2 NNW 1025,1 -
22.01.2020 05:00:00 8,6 7,8 9 5 O 1025,7 -
22.01.2020 04:00:00 7,8 7,2 5 3 ZZW 1026,2 -
22.01.2020 03:00:00 7,5 6,9 8 4 ZZW 1026,8 -
22.01.2020 02:00:00 7,4 6,8 5 3 ZW 1027,2 -
22.01.2020 01:00:00 7,2 6,5 8 4 ZZW 1028,3 -
22.01.2020 00:00:00 7,2 6,3 8 4 ZW 1028,6 -
21.01.2020 23:00:00 7,4 5,9 8 4 WZW 1029,1 -
21.01.2020 22:00:00 7,4 5,7 8 4 ZW 1029,2 25
21.01.2020 21:00:00 7,5 5,6 8 4 W 1029,5 -
21.01.2020 20:00:00 7,8 5,1 4 2 NW 1029,6 -
21.01.2020 19:00:00 7,7 5,3 4 2 Z 1029,4 25
21.01.2020 18:00:00 7,9 5,5 5 3 OZO 1029,6 -
21.01.2020 17:00:00 8,1 5,9 9 5 O 1029,9 -
21.01.2020 16:00:00 8,8 5,2 21 11 O 1029,9 25
21.01.2020 15:00:00 8,9 4,5 15 8 ONO 1030,2 -
21.01.2020 14:00:00 8,2 5,0 9 5 O 1031,1 -
21.01.2020 13:00:00 8,1 5,4 0 0 N 1031,7 20
21.01.2020 12:00:00 7,7 4,8 0 0 N 1032,2 -
21.01.2020 11:00:00 7,2 4,8 4 2 WNW 1032,7 -
21.01.2020 10:00:00 5,8 4,1 2 1 WNW 1032,8 25
21.01.2020 09:00:00 4,5 3,2 4 2 ZZO 1032,9 -
21.01.2020 08:00:00 3,9 2,7 0 0 N 1033,0 -
21.01.2020 07:00:00 3,9 2,4 4 2 WNW 1033,0 25
21.01.2020 06:00:00 4,1 2,8 4 2 ZW 1033,2 -
21.01.2020 05:00:00 3,5 2,2 4 2 ZZW 1033,3 -
21.01.2020 04:00:00 3,3 2,0 5 3 ZZW 1033,8 -
21.01.2020 03:00:00 3,8 2,0 4 2 ZZW 1034,3 -
21.01.2020 02:00:00 5,5 2,7 4 2 Z 1034,9 -
21.01.2020 01:00:00 6,2 3,4 5 3 ZZW 1035,3 -
21.01.2020 00:00:00 6,3 3,3 4 2 ZO 1035,5 -
20.01.2020 23:00:00 6,4 3,0 5 3 ZZW 1035,4 -
20.01.2020 22:00:00 6,7 2,6 4 2 ZZW 1035,7 20
20.01.2020 21:00:00 7,1 2,4 9 5 O 1035,9 -
20.01.2020 20:00:00 6,8 1,7 8 4 OZO 1036,0 -
20.01.2020 19:00:00 6,8 1,5 9 5 O 1035,8 20
20.01.2020 18:00:00 7,0 2,1 13 7 O 1035,5 -
20.01.2020 17:00:00 7,4 2,5 11 6 O 1035,3 -
20.01.2020 16:00:00 8,0 1,6 16 9 ONO 1035,5 20
20.01.2020 15:00:00 8,3 1,1 21 11 ONO 1035,5 -
20.01.2020 14:00:00 7,9 1,4 15 8 ONO 1035,8 -
20.01.2020 13:00:00 7,9 1,1 15 8 O 1036,7 20
20.01.2020 12:00:00 7,6 1,4 24 13 ONO 1037,1 -
20.01.2020 11:00:00 7,5 1,4 21 11 O 1037,2 -
20.01.2020 10:00:00 7,8 0,9 31 17 ONO 1037,1 25
20.01.2020 09:00:00 7,1 1,2 24 13 ONO 1036,8 -
20.01.2020 08:00:00 7,0 0,8 28 15 ONO 1036,4 -
20.01.2020 07:00:00 7,3 1,6 29 16 ONO 1036,3 20

tt = temperatuur
td = dauwpunt
ff = windsnelheid
dd = windrichting
ppp = luchtdruk
vv = zicht

Weerstations in de omgeving